#timestamp,LO_Frequency,Hit,StdDev 
1547964015.1,286046983.8,N
1547964016.0,286046983.8,N
1547964035.8,286046974.5,N
1547964055.6,286046960.1,Y
1547964075.5,286046968.3,P
1547964095.3,286046970.3,N
1547964115.2,286046970.8,N
1547964135.9,286046959.9,Y
1547964155.7,286046982.8,P
1547964175.6,286046983.3,P
1547964195.4,286046979.8,P
1547964215.3,286046972.0,Y
1547964235.1,286046982.3,P
1547964236.0,286046982.3,P
1547964255.8,286046972.1,P
1547964275.7,286046965.2,Y
1547964295.5,286046974.1,P
1547964315.4,286046971.8,P
1547964335.2,286046968.7,P
1547964355.0,286046981.5,Y
1547964355.9,286046981.5,P
1547964375.8,286047009.5,N
1547964395.6,286047008.6,N
1547964415.5,286047016.5,N
1547964435.3,286047019.7,N
1547964455.1,286047023.1,N
1547964475.9,286047019.9,N
1547964495.7,286047012.5,N
1547964515.5,286047009.7,N
1547964535.4,286047006.2,N
1547964555.2,286046998.5,N
1547964575.1,286046996.9,N
1547964576.0,286046996.9,N
1547964595.8,286046994.5,N
1547964615.6,286046993.9,N
1547964635.5,286046987.6,N
1547964655.3,286046982.3,N
1547964675.1,286046976.4,N
1547964695.9,286046979.0,N
1547964715.7,286046975.3,N
1547964735.6,286046971.3,N
1547964755.4,286046974.3,N
1547964775.2,286046976.0,N
1547964795.1,286046972.5,N
1547964796.0,286046972.5,N
1547964815.8,286046979.7,N
1547964835.7,286046976.1,N
1547964855.5,286046969.6,N
1547964875.3,286046975.5,N
1547964895.2,286046961.6,N
1547964915.0,286046967.5,N
1547964915.9,286046967.5,N
1547964935.8,286046968.4,N
1547964955.6,286046969.3,N
1547964975.4,286046969.7,N
1547964995.3,286046957.0,N
1547965015.1,286046947.4,Y
1547965035.8,286046975.5,P
1547965055.7,286046973.0,P
1547965075.5,286046981.5,P
1547965095.4,286046982.6,Y
1547965115.2,286047002.8,P
1547965135.0,286047005.2,N
1547965135.9,286047005.2,N
1547965185.8,286047006.0,E
1547965195.7,286047002.5,N
1547965215.6,286047004.6,P
1547965235.4,286047006.7,P
1547965255.3,286047008.1,Y
1547965275.1,286047006.4,P
1547965276.0,286047006.4,P
1547965295.8,286047010.7,P
1547965315.7,286047002.8,N
1547965335.5,286046994.6,N
1547965355.3,286046982.4,Y
1547965375.2,286046986.6,P
1547965395.0,286046988.1,N
1547965395.9,286046988.1,N
1547965415.8,286046986.3,N
1547965435.6,286046988.7,N
1547965455.4,286046993.3,N
1547965475.3,286046985.9,N
1547965495.1,286046969.7,Y
1547965515.9,286046976.5,P
1547965535.7,286046987.1,N
1547965555.5,286046979.4,P
1547965575.4,286046971.0,Y
1547965595.2,286046994.2,P
1547965615.1,286046990.3,N
1547965616.0,286046990.3,N
1547965635.8,286047001.6,N
1547965655.6,286047001.7,N
1547965675.5,286047007.3,N
1547965695.3,286047000.9,N
1547965715.1,286046987.4,N
1547965735.9,286046986.0,N
1547965755.7,286046992.6,N
1547965775.6,286046992.0,N
1547965795.4,286046998.8,N
1547965815.2,286047002.7,N
1547965835.1,286046991.8,N
1547965836.0,286046991.8,N
1547965855.8,286046990.5,N
1547965875.7,286047001.8,N
1547965895.5,286047013.5,N
1547965915.3,286047021.4,N
1547965935.2,286047022.1,N
1547965955.0,286047021.3,N
1547965955.9,286047021.3,N
1547965975.8,286047017.0,N
1547965995.6,286047011.3,N
1547966015.4,286047013.5,N
1547966035.3,286047016.1,N
1547966055.1,286047008.6,N
1547966075.8,286047002.5,N
1547966095.7,286046997.1,N
1547966115.5,286046996.4,N
1547966135.4,286046987.2,N
1547966155.2,286046994.2,N
1547966175.0,286046995.7,N
1547966175.9,286046995.7,N
1547966195.8,286047002.7,N
1547966215.6,286046999.2,N
1547966235.5,286046994.6,N
1547966255.3,286046990.7,N
1547966275.1,286046983.4,N
1547966295.9,286046985.4,N
1547966315.7,286046984.0,N
1547966335.6,286046981.8,N
1547966355.4,286046968.4,N
1547966375.2,286046965.1,N
1547966395.1,286046970.4,N
1547966396.0,286046970.4,N
1547966415.8,286046976.2,N
1547966465.6,286046979.5,E
1547966475.6,286046984.5,N
1547966495.4,286046985.8,P
1547966515.2,286046978.0,P
1547966535.1,286046979.8,Y
1547966536.0,286046979.8,P
1547966555.8,286047002.4,N
1547966575.7,286046993.1,N
1547966595.5,286046986.6,N
1547966615.3,286046980.5,N
1547966635.2,286046982.1,N
1547966655.0,286046988.3,N
1547966655.9,286046988.3,N
1547966675.8,286046994.9,N
1547966695.6,286046994.6,N
1547966715.4,286046999.0,N
1547966735.3,286047008.1,N
1547966755.1,286047017.7,N
1547966775.8,286047012.6,N
1547966795.7,286047010.4,N
1547966815.5,286047013.2,N
1547966835.4,286047008.6,N
1547966855.2,286047002.6,N
1547966875.1,286046993.8,N
1547966876.0,286046993.8,N
1547966895.8,286046995.3,N
1547966915.6,286047005.5,N
1547966935.5,286047007.3,N
1547966955.3,286047008.8,N
1547966975.2,286047013.5,N
1547966995.9,286047012.2,N
1547967015.7,286047009.5,N
1547967035.6,286047000.1,N
1547967055.4,286047001.2,N
1547967075.2,286046999.3,N
1547967095.1,286047000.7,N
1547967096.0,286047000.7,N
1547967115.8,286047000.9,N
1547967135.7,286046994.2,N
1547967155.5,286046997.6,N
1547967175.3,286046990.7,N
1547967195.2,286047001.9,N
1547967215.0,286047002.3,N
1547967215.9,286047002.3,N
1547967235.8,286047000.0,N
1547967255.6,286047002.5,N
1547967275.4,286047004.4,N
1547967295.3,286046996.0,N
1547967315.1,286046991.1,N
1547967335.8,286046989.2,N
1547967355.7,286046983.7,N
1547967375.5,286046977.6,Y
1547967395.4,286046986.1,P
1547967415.2,286046993.4,N
1547967435.0,286046997.9,N
1547967435.9,286046997.9,N
1547967455.8,286047000.7,N
1547967475.6,286047002.4,N
1547967495.5,286047009.5,N
1547967515.3,286047007.3,N
1547967535.1,286047010.0,N
1547967555.9,286047004.2,N
1547967575.7,286047001.6,N
1547967595.5,286047008.2,N
